SWA743 KBNA-KPHL

Flight info

Callsign SWA743
Flight time N/A
Altitude 39000
Route CHADM4 MUNNY TONIO Q34 GVE PAATS4
Aircraft B737/M-SDE2E3FGHIRWXY/LB1

Departure

Time 2026-05-06 01:53
Airport Nashville International Airport (KBNA)

Arrival

Time N/A
Airport Philadelphia International Airport (KPHL)
Time Latitude Longitude Altitude Speed Heading
2026-05-06 01:15 36.12745 -86.66892 574 ft 0 kts 329°
2026-05-06 01:38 36.12738 -86.66887 573 ft 4 kts 328°
2026-05-06 01:38 36.12719 -86.66872 573 ft 4 kts 316°
2026-05-06 01:38 36.12710 -86.66850 575 ft 4 kts 246°
2026-05-06 01:38 36.12726 -86.66824 577 ft 4 kts 222°
2026-05-06 01:39 36.12717 -86.66833 572 ft 4 kts 221°
2026-05-06 01:39 36.12700 -86.66851 569 ft 1 kts 221°
2026-05-06 01:39 36.12700 -86.66852 569 ft 1 kts 221°
2026-05-06 01:46 36.12684 -86.66869 572 ft 5 kts 220°
2026-05-06 01:46 36.12653 -86.66904 569 ft 7 kts 236°
2026-05-06 01:46 36.12667 -86.66960 572 ft 8 kts 309°
2026-05-06 01:46 36.12715 -86.67033 568 ft 14 kts 307°
2026-05-06 01:47 36.12790 -86.67142 572 ft 18 kts 315°
2026-05-06 01:47 36.12856 -86.67229 568 ft 9 kts 298°
2026-05-06 01:47 36.12839 -86.67289 572 ft 8 kts 227°
2026-05-06 01:47 36.12800 -86.67332 573 ft 7 kts 224°
2026-05-06 01:48 36.12765 -86.67378 572 ft 7 kts 226°
2026-05-06 01:48 36.12729 -86.67417 575 ft 7 kts 217°
2026-05-06 01:48 36.12688 -86.67449 574 ft 7 kts 209°
2026-05-06 01:48 36.12628 -86.67492 575 ft 15 kts 210°
2026-05-06 01:49 36.12546 -86.67572 579 ft 15 kts 223°
2026-05-06 01:49 36.12473 -86.67650 579 ft 12 kts 220°
2026-05-06 01:49 36.12399 -86.67691 578 ft 11 kts 196°
2026-05-06 01:49 36.12351 -86.67746 578 ft 10 kts 276°
2026-05-06 01:50 36.12374 -86.67829 578 ft 10 kts 290°
2026-05-06 01:50 36.12383 -86.67858 576 ft 0 kts 289°
2026-05-06 01:52 36.12397 -86.67909 575 ft 11 kts 287°
2026-05-06 01:52 36.12386 -86.67974 576 ft 6 kts 212°
2026-05-06 01:52 36.12371 -86.67980 575 ft 0 kts 195°
2026-05-06 01:52 36.12337 -86.67993 580 ft 28 kts 198°
2026-05-06 01:53 36.11848 -86.68190 578 ft 116 kts 198°
2026-05-06 01:53 36.10844 -86.68591 616 ft 183 kts 198°
2026-05-06 01:53 36.09632 -86.69009 1667 ft 168 kts 189°
2026-05-06 01:53 36.08635 -86.69183 3389 ft 134 kts 194°
2026-05-06 01:54 36.07637 -86.69178 4097 ft 163 kts 176°
2026-05-06 01:54 36.06425 -86.68679 4459 ft 204 kts 166°
2026-05-06 01:54 36.05004 -86.67913 4708 ft 242 kts 164°
2026-05-06 01:54 36.03385 -86.67002 5304 ft 263 kts 163°
2026-05-06 01:55 36.01696 -86.66037 6266 ft 271 kts 163°
2026-05-06 01:55 35.99969 -86.65029 6751 ft 279 kts 158°
2026-05-06 01:55 35.98489 -86.63375 7008 ft 300 kts 130°
2026-05-06 01:55 35.97770 -86.60909 7012 ft 313 kts 101°
2026-05-06 01:56 35.97651 -86.58213 7019 ft 317 kts 94°
2026-05-06 01:56 35.97636 -86.55484 7012 ft 318 kts 94°
2026-05-06 01:56 35.97609 -86.52769 7005 ft 320 kts 95°
2026-05-06 01:56 35.97560 -86.50019 7012 ft 320 kts 95°
2026-05-06 01:57 35.97720 -86.47275 6995 ft 324 kts 75°
2026-05-06 01:57 35.98693 -86.44768 7199 ft 328 kts 54°
2026-05-06 01:57 36.00003 -86.42460 8222 ft 326 kts 52°
2026-05-06 01:57 36.01327 -86.40192 9362 ft 326 kts 52°
2026-05-06 01:58 36.02665 -86.37906 10319 ft 331 kts 52°
2026-05-06 01:58 36.04053 -86.35524 10770 ft 354 kts 52°
2026-05-06 01:58 36.05533 -86.32970 11272 ft 372 kts 52°
2026-05-06 01:58 36.07022 -86.30377 12106 ft 377 kts 52°
2026-05-06 01:59 36.08544 -86.27716 13030 ft 381 kts 52°
2026-05-06 01:59 36.10083 -86.25018 13873 ft 386 kts 52°
2026-05-06 01:59 36.11639 -86.22288 14635 ft 391 kts 52°
2026-05-06 01:59 36.13210 -86.19528 15455 ft 395 kts 51°
2026-05-06 02:00 36.14798 -86.16737 16256 ft 398 kts 52°
2026-05-06 02:00 36.16397 -86.13925 17095 ft 402 kts 51°
2026-05-06 02:00 36.18015 -86.11078 17890 ft 406 kts 51°
2026-05-06 02:00 36.19623 -86.08178 18591 ft 412 kts 57°
2026-05-06 02:01 36.20680 -86.04842 19216 ft 422 kts 75°
2026-05-06 02:01 36.21324 -86.01284 19917 ft 425 kts 76°
2026-05-06 02:01 36.21959 -85.97683 20554 ft 431 kts 76°
2026-05-06 02:01 36.22613 -85.94038 21190 ft 435 kts 75°
2026-05-06 02:02 36.23290 -85.90364 21848 ft 439 kts 75°
2026-05-06 02:02 36.23986 -85.86657 22492 ft 443 kts 75°
2026-05-06 02:02 36.24693 -85.82916 23116 ft 448 kts 74°
2026-05-06 02:02 36.25399 -85.79171 23667 ft 453 kts 74°
2026-05-06 02:03 36.26242 -85.75401 24164 ft 455 kts 69°
2026-05-06 02:03 36.27288 -85.71682 24694 ft 457 kts 66°
2026-05-06 02:03 36.28407 -85.67971 25194 ft 461 kts 65°
2026-05-06 02:03 36.29538 -85.64220 25699 ft 465 kts 66°
2026-05-06 02:04 36.30651 -85.60437 26188 ft 469 kts 66°
2026-05-06 02:04 36.31735 -85.56657 26656 ft 474 kts 67°
2026-05-06 02:04 36.32830 -85.52777 27103 ft 478 kts 67°
2026-05-06 02:04 36.33927 -85.48864 27551 ft 482 kts 67°
2026-05-06 02:05 36.35033 -85.44923 28001 ft 485 kts 67°
2026-05-06 02:05 36.36182 -85.40964 28460 ft 488 kts 65°
2026-05-06 02:05 36.37409 -85.37006 28924 ft 490 kts 64°
2026-05-06 02:05 36.38666 -85.33057 29361 ft 494 kts 63°
2026-05-06 02:06 36.39935 -85.29073 29778 ft 498 kts 64°
2026-05-06 02:06 36.41185 -85.25117 30168 ft 501 kts 64°
2026-05-06 02:06 36.42458 -85.21052 30477 ft 506 kts 64°
2026-05-06 02:06 36.43729 -85.16960 30772 ft 510 kts 63°
2026-05-06 02:07 36.45003 -85.12836 31091 ft 513 kts 63°
2026-05-06 02:07 36.46283 -85.08683 31379 ft 517 kts 63°
2026-05-06 02:07 36.47577 -85.04480 31626 ft 521 kts 63°
2026-05-06 02:07 36.48854 -85.00330 32000 ft 521 kts 63°
2026-05-06 02:08 36.50149 -84.96119 32329 ft 523 kts 62°
2026-05-06 02:08 36.51544 -84.91943 32586 ft 523 kts 58°
2026-05-06 02:08 36.53118 -84.87863 32857 ft 523 kts 55°
2026-05-06 02:08 36.54778 -84.83839 33208 ft 523 kts 54°
2026-05-06 02:09 36.56464 -84.79829 33563 ft 523 kts 54°
2026-05-06 02:09 36.58141 -84.75817 33913 ft 523 kts 54°
2026-05-06 02:09 36.59806 -84.71776 34189 ft 525 kts 54°
2026-05-06 02:09 36.60896 -84.69094 34398 ft 524 kts 54°
2026-05-06 02:10 36.62523 -84.65040 34799 ft 522 kts 54°
2026-05-06 02:10 36.64125 -84.61009 35283 ft 518 kts 55°
2026-05-06 02:10 36.65715 -84.56995 35577 ft 518 kts 54°
2026-05-06 02:10 36.67312 -84.52963 35789 ft 519 kts 54°
2026-05-06 02:11 36.68912 -84.48922 36100 ft 518 kts 54°
2026-05-06 02:11 36.70505 -84.44891 36415 ft 517 kts 54°
2026-05-06 02:11 36.72094 -84.40870 36643 ft 517 kts 54°
2026-05-06 02:11 36.73683 -84.36846 36908 ft 518 kts 54°
2026-05-06 02:12 36.75271 -84.32819 37165 ft 517 kts 54°
2026-05-06 02:12 36.76860 -84.28790 37397 ft 517 kts 54°
2026-05-06 02:12 36.78441 -84.24769 37696 ft 515 kts 53°
2026-05-06 02:12 36.79996 -84.20810 37974 ft 514 kts 53°
2026-05-06 02:13 36.81563 -84.16810 38302 ft 512 kts 53°
2026-05-06 02:13 36.83123 -84.12825 38612 ft 510 kts 53°
2026-05-06 02:13 36.84681 -84.08845 38864 ft 510 kts 53°
2026-05-06 02:13 36.86243 -84.04858 38883 ft 511 kts 53°
2026-05-06 02:14 36.89368 -83.96863 38907 ft 514 kts 53°
2026-05-06 02:14 36.92494 -83.88832 38918 ft 514 kts 53°
2026-05-06 02:15 36.95614 -83.80788 38894 ft 514 kts 53°
2026-05-06 02:15 36.98726 -83.72746 38893 ft 512 kts 54°
2026-05-06 02:16 37.01817 -83.64741 38904 ft 510 kts 54°
2026-05-06 02:16 37.04902 -83.56733 38891 ft 509 kts 53°
2026-05-06 02:17 37.07969 -83.48753 38891 ft 509 kts 54°
2026-05-06 02:17 37.11027 -83.40777 38891 ft 508 kts 54°
2026-05-06 02:18 37.14080 -83.32792 38874 ft 507 kts 54°
2026-05-06 02:18 37.17115 -83.24829 38882 ft 505 kts 54°
2026-05-06 02:19 37.20121 -83.16927 38894 ft 505 kts 54°
2026-05-06 02:19 37.23151 -83.08956 38876 ft 507 kts 54°
2026-05-06 02:20 37.27379 -82.96698 38906 ft 515 kts 61°
2026-05-06 02:21 37.29729 -82.88165 38891 ft 518 kts 62°
2026-05-06 02:21 37.32064 -82.79632 38880 ft 520 kts 62°
2026-05-06 02:22 37.34465 -82.71060 38907 ft 519 kts 61°
2026-05-06 02:22 37.36883 -82.62497 38889 ft 518 kts 61°
2026-05-06 02:23 37.39269 -82.54026 38885 ft 517 kts 62°
2026-05-06 02:23 37.41658 -82.45504 38861 ft 515 kts 61°
2026-05-06 02:24 37.44019 -82.37018 38856 ft 514 kts 62°
2026-05-06 02:24 37.46386 -82.28545 38873 ft 511 kts 62°
2026-05-06 02:25 37.48730 -82.20101 38880 ft 510 kts 62°
2026-05-06 02:25 37.51068 -82.11654 38874 ft 510 kts 62°
2026-05-06 02:26 37.53404 -82.03209 38906 ft 511 kts 62°
2026-05-06 02:26 37.55733 -81.94778 38877 ft 513 kts 62°
2026-05-06 02:27 37.58070 -81.86284 38897 ft 512 kts 62°
2026-05-06 02:27 37.60397 -81.77791 38886 ft 512 kts 62°
2026-05-06 02:28 37.62703 -81.69300 38906 ft 510 kts 62°
2026-05-06 02:28 37.65001 -81.60817 38894 ft 510 kts 63°
2026-05-06 02:29 37.67279 -81.52372 38913 ft 512 kts 63°